Total_Precipitation_Accumulation
0.45 0.47 0.49 0.50 0.50 0.52 0.54 0.50 0.41 0.36 0.34 0.33 0.33 0.30 0.27 0.26 0.30 0.35 0.38 0.48 0.60 0.68 0.64 0.55 0.50 0.50 0.49 0.42 0.38 0.35 0.34 0.38 0.41 0.42 0.50 0.62 0.67 0.57 0.58 0.55 0.51 0.52 0.44
0.37 0.47 0.47 0.49 0.55 0.52 0.48 0.53 0.52 0.49 0.48 0.45 0.40 0.36 0.32 0.27 0.28 0.31 0.33 0.38 0.50 0.67 0.81 0.83 0.72 0.65 0.60 0.51 0.46 0.43 0.42 0.46 0.50 0.57 0.63 0.71 0.74 0.74 0.70 0.55 0.45 0.44 0.47
0.37 0.46 0.53 0.56 0.63 0.64 0.59 0.59 0.60 0.57 0.55 0.58 0.56 0.52 0.48 0.43 0.39 0.38 0.37 0.35 0.37 0.47 0.63 0.82 0.90 0.85 0.71 0.65 0.57 0.51 0.49 0.47 0.51 0.54 0.63 0.80 0.92 0.92 0.74 0.50 0.41 0.44 0.43
0.52 0.62 0.65 0.71 0.79 0.81 0.73 0.71 0.70 0.72 0.70 0.72 0.75 0.68 0.59 0.53 0.49 0.50 0.49 0.47 0.48 0.50 0.52 0.59 0.72 0.87 0.84 0.77 0.69 0.63 0.61 0.62 0.64 0.63 0.69 0.86 1.05 1.10 0.89 0.61 0.49 0.47 0.44
0.81 0.84 0.81 0.82 0.87 0.91 0.93 0.94 0.96 1.00 1.00 1.00 0.94 0.85 0.79 0.73 0.63 0.68 0.75 0.74 0.75 0.65 0.56 0.51 0.51 0.61 0.73 0.78 0.71 0.67 0.69 0.70 0.71 0.70 0.74 0.89 1.05 1.14 0.92 0.68 0.54 0.48 0.44
1.19 1.20 1.21 1.21 1.22 1.24 1.23 1.21 1.22 1.21 1.21 1.16 1.09 1.06 1.01 0.88 0.87 0.84 0.80 0.79 0.83 0.80 0.69 0.61 0.53 0.49 0.53 0.63 0.69 0.71 0.71 0.69 0.70 0.71 0.74 0.86 0.98 1.03 1.07 0.88 0.67 0.49 0.40
1.17 1.15 1.17 1.23 1.27 1.28 1.29 1.30 1.25 1.21 1.18 1.14 1.15 1.14 1.08 1.02 0.90 0.73 0.61 0.63 0.67 0.71 0.74 0.72 0.54 0.43 0.48 0.54 0.62 0.64 0.61 0.57 0.57 0.62 0.68 0.78 1.04 1.20 1.31 1.04 0.84 0.72 0.56
1.00 0.96 0.96 0.99 0.99 1.00 1.06 1.10 1.09 1.10 1.09 1.06 1.01 0.90 0.82 0.72 0.63 0.54 0.50 0.54 0.57 0.56 0.64 0.71 0.66 0.56 0.52 0.55 0.54 0.51 0.49 0.47 0.44 0.44 0.51 0.67 0.92 1.27 1.46 1.43 1.31 1.10 0.92
0.83 0.82 0.78 0.79 0.79 0.81 0.86 0.91 0.96 0.96 0.88 0.78 0.70 0.68 0.67 0.64 0.61 0.50 0.45 0.51 0.57 0.53 0.54 0.58 0.62 0.58 0.50 0.42 0.44 0.40 0.38 0.38 0.35 0.36 0.40 0.57 0.75 1.01 1.36 1.52 1.44 1.22 0.99
0.75 0.80 0.77 0.76 0.76 0.75 0.77 0.78 0.75 0.74 0.70 0.65 0.58 0.57 0.59 0.62 0.61 0.46 0.42 0.49 0.56 0.55 0.58 0.63 0.67 0.60 0.47 0.34 0.39 0.43 0.36 0.32 0.34 0.35 0.36 0.42 0.55 0.73 1.04 1.20 1.17 1.10 0.92
0.63 0.68 0.68 0.67 0.67 0.66 0.66 0.65 0.64 0.64 0.61 0.55 0.49 0.49 0.52 0.51 0.46 0.33 0.30 0.38 0.45 0.49 0.48 0.50 0.60 0.55 0.42 0.30 0.32 0.37 0.32 0.33 0.40 0.40 0.41 0.46 0.57 0.69 0.82 1.03 1.09 0.98 0.85
0.59 0.60 0.58 0.59 0.59 0.58 0.59 0.57 0.55 0.53 0.50 0.45 0.43 0.43 0.47 0.49 0.39 0.29 0.19 0.22 0.32 0.40 0.50 0.53 0.61 0.58 0.44 0.36 0.31 0.30 0.25 0.23 0.31 0.37 0.37 0.38 0.45 0.56 0.72 0.92 1.08 1.05 0.92
0.63 0.63 0.59 0.56 0.58 0.61 0.62 0.62 0.60 0.56 0.54 0.49 0.44 0.37 0.36 0.42 0.40 0.22 0.16 0.15 0.22 0.35 0.55 0.70 0.74 0.70 0.60 0.49 0.43 0.40 0.31 0.26 0.30 0.32 0.33 0.32 0.35 0.47 0.71 0.96 1.15 1.25 1.15
0.64 0.59 0.56 0.55 0.55 0.58 0.65 0.67 0.65 0.61 0.56 0.48 0.44 0.41 0.40 0.43 0.43 0.36 0.28 0.20 0.20 0.28 0.48 0.66 0.79 0.85 0.81 0.70 0.61 0.55 0.42 0.35 0.35 0.35 0.36 0.40 0.48 0.60 0.75 0.85 0.99 1.13 1.17
0.60 0.58 0.54 0.50 0.49 0.50 0.53 0.54 0.48 0.48 0.43 0.39 0.37 0.38 0.39 0.39 0.31 0.23 0.21 0.21 0.21 0.24 0.39 0.66 0.87 1.01 1.05 1.03 0.91 0.82 0.70 0.58 0.50 0.50 0.53 0.54 0.57 0.64 0.72 0.84 0.97 1.03 1.00
0.62 0.56 0.51 0.46 0.44 0.44 0.43 0.43 0.40 0.34 0.31 0.30 0.31 0.28 0.25 0.24 0.20 0.15 0.13 0.14 0.15 0.20 0.38 0.64 0.87 1.04 1.11 1.23 1.24 1.16 0.99 0.84 0.75 0.73 0.70 0.69 0.70 0.69 0.73 0.87 1.01 1.07 0.97
0.58 0.55 0.50 0.44 0.42 0.40 0.39 0.41 0.45 0.42 0.33 0.30 0.34 0.29 0.19 0.17 0.16 0.15 0.15 0.15 0.16 0.21 0.41 0.58 0.69 0.84 1.01 1.21 1.29 1.28 1.12 1.00 1.02 1.00 0.91 0.85 0.86 0.83 0.81 0.88 1.01 1.09 1.07
0.46 0.45 0.41 0.38 0.39 0.38 0.37 0.38 0.43 0.49 0.52 0.45 0.41 0.38 0.22 0.15 0.13 0.14 0.15 0.18 0.18 0.22 0.38 0.47 0.54 0.66 0.84 1.09 1.25 1.31 1.25 1.14 1.12 1.14 1.11 1.04 1.02 0.96 0.89 0.86 0.96 1.05 1.08
0.37 0.32 0.27 0.29 0.31 0.32 0.32 0.33 0.35 0.39 0.46 0.46 0.41 0.40 0.29 0.18 0.15 0.16 0.24 0.32 0.31 0.29 0.38 0.44 0.48 0.59 0.74 0.94 1.15 1.30 1.32 1.26 1.20 1.25 1.25 1.15 1.10 1.05 0.94 0.86 0.90 1.01 1.09
0.27 0.26 0.21 0.19 0.20 0.24 0.27 0.30 0.31 0.37 0.42 0.44 0.42 0.42 0.37 0.28 0.28 0.34 0.45 0.54 0.50 0.48 0.52 0.53 0.57 0.67 0.80 1.02 1.21 1.31 1.34 1.31 1.27 1.30 1.28 1.20 1.14 1.11 1.00 0.96 0.96 1.01 1.03
0.25 0.21 0.19 0.16 0.18 0.23 0.27 0.31 0.32 0.38 0.45 0.45 0.40 0.32 0.25 0.29 0.39 0.50 0.62 0.66 0.62 0.59 0.58 0.57 0.59 0.65 0.81 1.02 1.17 1.29 1.33 1.34 1.33 1.29 1.26 1.19 1.14 1.12 1.10 1.06 1.01 1.01 1.06
0.26 0.22 0.20 0.20 0.20 0.21 0.21 0.27 0.29 0.31 0.34 0.38 0.40 0.34 0.30 0.36 0.51 0.62 0.69 0.75 0.74 0.72 0.67 0.64 0.62 0.68 0.78 0.91 1.07 1.19 1.21 1.22 1.24 1.25 1.21 1.16 1.13 1.12 1.15 1.15 1.10 1.08 1.11
0.22 0.20 0.18 0.19 0.20 0.18 0.21 0.27 0.28 0.29 0.34 0.40 0.44 0.48 0.54 0.61 0.67 0.75 0.79 0.80 0.76 0.72 0.68 0.65 0.65 0.68 0.74 0.81 0.91 1.01 1.07 1.09 1.12 1.15 1.20 1.17 1.14 1.13 1.13 1.14 1.12 1.12 1.09
0.19 0.18 0.16 0.18 0.20 0.24 0.26 0.29 0.30 0.30 0.36 0.44 0.51 0.59 0.65 0.69 0.73 0.77 0.76 0.75 0.71 0.68 0.70 0.69 0.69 0.70 0.73 0.80 0.85 0.84 0.86 0.88 0.90 0.94 1.00 1.04 1.05 1.05 1.08 1.07 1.10 1.13 1.16
0.21 0.25 0.23 0.23 0.23 0.25 0.28 0.29 0.29 0.32 0.39 0.51 0.59 0.64 0.69 0.72 0.75 0.72 0.67 0.63 0.59 0.60 0.63 0.63 0.64 0.59 0.57 0.59 0.62 0.64 0.70 0.69 0.71 0.76 0.78 0.81 0.84 0.90 0.96 0.98 1.04 1.13 1.22
0.20 0.28 0.31 0.30 0.25 0.23 0.27 0.30 0.31 0.34 0.40 0.45 0.53 0.57 0.59 0.63 0.69 0.68 0.65 0.64 0.61 0.59 0.59 0.60 0.57 0.50 0.49 0.49 0.46 0.46 0.43 0.42 0.49 0.58 0.63 0.68 0.75 0.84 0.91 0.94 0.98 1.06 1.14